[[{"header":{"parameterUnit":"m.s-1","parameterCategory":2,"la1":30.2991,"la2":30.254,"lo1":-89.0895,"lo2":-89.0444,"dy":0.0017,"dx":0.0017,"nx":28,"ny":28,"refTime":"2024-05-12T09:00:00:Z","depth":"0","parameterNumber":2,"parameterNumberName":"U-component_of_CURRENTS"},"data":[0,0,0,0,0,0,0,0,0,0,0,0,0,0,0,0,0,0,0,0,0,0,0,0,0,0,0,0,0,0,0,0,0,0,0,0,0,0,0,0,0,0,0,0,0,0,0,0,0,0,0,0,0,0,0,0,0,0,0.253,0.253,0,0.2529,0.2528,0.2528,0.2511,0.2511,0.2511,0.2511,0.2487,0.2487,0.2486,0,0,0,0,0,0,0,0,0,0,0,0,0,0.2525,0.2525,0.253,0.253,0.253,0.2529,0.2528,0.2528,0.2511,0.2511,0.2511,0.2511,0.2487,0.2487,0.2486,0,0,0,0,0,0,0,0,0,0,0,0,0,0.2524,0.2525,0.253,0.2523,0.2523,0.2529,0.2528,0.2528,0.2511,0.2511,0.2511,0.2511,0.2487,0.2487,0.2486,0.2489,0,0,0.2484,0.2484,0,0,0,0,0,0,0,0,0.2524,0.2524,0.2524,0.2524,0.2523,0.2522,0.2518,0.2515,0.2512,0.2513,0.2511,0.251,0.2498,0.2497,0.2494,0.2488,0.2487,0.2484,0.2484,0.2484,0.2483,0,0,0,0,0,0,0,0.2524,0.2524,0.2527,0.2524,0.2524,0.2523,0.2522,0.2517,0.2505,0.2513,0.2512,0.2516,0.2498,0.2495,0.2494,0.2486,0.2484,0.2484,0.2483,0.2483,0.2512,0.2513,0,0,0,0,0,0,0.2529,0.2524,0.2527,0.2527,0.2525,0.2524,0.2523,0.2521,0.2506,0.2504,0.2517,0.2515,0.2496,0.2494,0.2493,0.2513,0.2484,0.2483,0.2483,0.2511,0.2512,0.2513,0,0,0,0,0,0,0.2528,0.2529,0.2527,0.2528,0.2528,0.2524,0.2522,0.2521,0.2523,0.2509,0.2506,0.2521,0.2496,0.2494,0.2497,0.2512,0.2483,0.2482,0.2509,0.2511,0.2513,0.2543,0,0,0,0,0,0,0.2528,0.2528,0.253,0.2528,0.2528,0.2536,0.2523,0.2521,0.2526,0.2525,0.2512,0.2509,0.2496,0.2499,0.2497,0.251,0.2482,0.2508,0.251,0.2512,0.254,0.2545,0.255,0,0,0,0,0,0.2528,0.2529,0.253,0.253,0.2529,0.2537,0.2536,0.2532,0.2527,0.2531,0.2525,0.251,0.2511,0.2499,0.2497,0.251,0.2507,0.2509,0.2512,0.2538,0.2544,0.255,0,0,0,0,0,0,0.2526,0.2528,0.2528,0.2529,0.2537,0.2535,0.2539,0.2538,0.2536,0.2535,0.2519,0.2516,0.2529,0.2518,0.2505,0.2527,0.2509,0.2511,0.253,0.2535,0.254,0.2544,0.2481,0,0,0,0,0,0.2528,0.2528,0.2535,0.2536,0.2542,0.2543,0.2546,0.2545,0.2544,0.2543,0.2534,0.2532,0.2538,0.2535,0.2536,0.2542,0.2555,0.2553,0.2557,0.2561,0.2565,0.261,0.2619,0.2522,0.2522,0.2522,0,0,0.2526,0.2529,0.2529,0.2536,0.254,0.2548,0.2543,0.2552,0.2558,0.2541,0.2544,0.2548,0.2545,0.2556,0.2561,0.2547,0.2596,0.2564,0.2568,0.257,0.2614,0.2624,0.2632,0.2523,0.2523,0.2523,0,0,0.2526,0.253,0.2532,0.254,0.2553,0.2556,0.2562,0.2567,0.2569,0.2577,0.2573,0.2588,0.2584,0.259,0.2592,0.2624,0.2624,0.2625,0.2644,0.2688,0.2697,0.2704,0.2733,0.2743,0.2622,0.2622,0.2622,0,0.2526,0.2529,0.2535,0.2543,0.2554,0.2561,0.2572,0.2576,0.2581,0.2597,0.2583,0.2611,0.2602,0.2631,0.2638,0.2634,0.2655,0.262,0.2694,0.2702,0.2709,0.2737,0.2748,0.2624,0.2624,0.2623,0.2623,0,0.2527,0.2534,0.2539,0.2551,0.2564,0.2576,0.2589,0.2604,0.2611,0.262,0.2655,0.2651,0.2673,0.2671,0.2658,0.2707,0.2705,0.2699,0.2679,0.2721,0.2747,0.2758,0.2626,0.2626,0.2625,0.2625,0,0,0.2514,0.2536,0.2536,0.2545,0.2572,0.2578,0.2607,0.2638,0.266,0.2673,0.2707,0.2718,0.273,0.2734,0.2729,0.2753,0.2812,0.2744,0.2745,0.2769,0.2907,0.2898,0.2908,0.2823,0.2825,0.2827,0.2905,0,0.2514,0.2526,0.2543,0.2559,0.2569,0.26,0.2622,0.2653,0.268,0.2714,0.2739,0.2762,0.275,0.276,0.279,0.281,0.2841,0.2791,0.2865,0.2867,0.2852,0.2921,0.2852,0.2915,0.2915,0.2916,0.2918,0,0.2507,0.2518,0.2534,0.2566,0.2574,0.2588,0.2641,0.2663,0.2724,0.2749,0.2799,0.2815,0.2863,0.2836,0.2913,0.2885,0.2902,0.291,0.2914,0.2902,0.2878,0.2874,0.2934,0.2886,0.2933,0.2932,0.2931,0,0.2481,0.251,0.2522,0.2531,0.257,0.2593,0.2619,0.2677,0.2706,0.2776,0.2813,0.2874,0.2909,0.295,0.2982,0.2954,0.3062,0.3028,0.3038,0.3037,0.2991,0.2983,0.301,0.3088,0.3088,0.3088,0.3087,0,0.2469,0.2475,0.2509,0.2512,0.2534,0.2573,0.2607,0.2651,0.2719,0.2762,0.2827,0.2877,0.2941,0.3008,0.302,0.3078,0.3107,0.3062,0.3068,0.2999,0.2991,0.2955,0.2916,0.3091,0.309,0.3089,0.3089,0,0.243,0.2454,0.2464,0.2505,0.2518,0.2531,0.2589,0.2614,0.2694,0.276,0.2786,0.2902,0.2996,0.3058,0.3132,0.3133,0.3085,0.3184,0.3094,0.3088,0.3027,0.2991,0.2811,0.2721,0.3202,0.3203,0.3203,0,0.2408,0.2412,0.2443,0.2447,0.2464,0.2493,0.2511,0.2588,0.2626,0.2769,0.28,0.2927,0.3002,0.3131,0.3174,0.3228,0.31,0.3174,0.3102,0.3036,0.3001,0.278,0.2701,0.3052,0.3051,0.305,0.305,0,0.2372,0.2384,0.2393,0.24,0.2414,0.2427,0.2469,0.2493,0.2595,0.2667,0.2771,0.2846,0.3015,0.3067,0.3167,0.3176,0.301,0.3159,0.312,0.2919,0.2649,0.2562,0.2979,0.3043,0.3044,0.3044,0.3044,0.3045,0.2344,0.2337,0.2349,0.2345,0.2354,0.2348,0.2331,0.2395,0.2444,0.2528,0.267,0.2758,0.2948,0.3088,0.3083,0.3075,0.2963,0.2996,0.2969,0.2758,0.2628,0.3028,0.3079,0.308,0.308,0.3081,0.3082,0,0.2298,0.2293,0.2291,0.2273,0.224,0.2273,0.2284,0.2256,0.2273,0.241,0.249,0.2686,0.2784,0.291,0.3014,0.2923,0.2713,0.2833,0.253,0.2473,0.289,0.2847,0.2814,0.2814,0.2814,0.2814,0.2814,0.2814,0.2276,0.2247,0.2234,0.2158,0.214,0.2062,0.2042,0.2032,0.2091,0.217,0.2279,0.2402,0.2658,0.2827,0.2818,0.2765,0.2524,0.2374,0.2329,0.2691,0.2703,0.2715,0.2667,0.2596,0.2596,0.1788,0.1783,0.1779]},{"header":{"parameterUnit":"m.s-1","parameterCategory":2,"la1":30.2991,"la2":30.254,"lo1":-89.0895,"lo2":-89.0444,"dy":0.0017,"dx":0.0017,"nx":28,"ny":28,"refTime":"2024-05-12T09:00:00:Z","depth":"0","parameterNumber":3,"parameterNumberName":"V-component_of_CURRENTS"},"data":[0,0,0,0,0,0,0,0,0,0,0,0,0,0,0,0,0,0,0,0,0,0,0,0,0,0,0,0,0,0,0,0,0,0,0,0,0,0,0,0,0,0,0,0,0,0,0,0,0,0,0,0,0,0,0,0,0,0,0.0179,0.0178,0,0.0128,0.0127,0.0126,0.0094,0.0093,0.0093,0.0093,0.0027,0.0025,0.0024,0,0,0,0,0,0,0,0,0,0,0,0,0,0.0212,0.0212,0.0179,0.0178,0.0177,0.0128,0.0127,0.0126,0.0094,0.0093,0.0093,0.0093,0.0028,0.0026,0.0024,0,0,0,0,0,0,0,0,0,0,0,0,0,0.0183,0.0212,0.0179,0.0156,0.0153,0.0128,0.0127,0.0126,0.0094,0.0093,0.0093,0.0093,0.0028,0.0026,0.0023,0.0012,0,0,0.0016,0.0015,0,0,0,0,0,0,0,0,0.0184,0.0181,0.016,0.0157,0.0154,0.0117,0.0115,0.0087,0.0094,0.0115,0.0093,0.0093,0.0056,0.0052,0.0042,0.0009,0.0006,0.0016,0.0014,0.0013,0.0012,0,0,0,0,0,0,0,0.0187,0.0183,0.0158,0.0159,0.0156,0.0136,0.0132,0.0109,0.0087,0.0113,0.0111,0.0107,0.0055,0.0044,0.004,0.0005,0.0016,0.0013,0.0012,0.0011,-0.0042,-0.0042,0,0,0,0,0,0,0.0197,0.0185,0.0159,0.0156,0.017,0.0136,0.0131,0.0129,0.0087,0.0081,0.0107,0.0106,0.0048,0.0043,0.0037,0.0035,0.0013,0.0011,0.0009,-0.0042,-0.0042,-0.0042,0,0,0,0,0,0,0.0197,0.0195,0.0161,0.017,0.0164,0.0136,0.0133,0.0128,0.012,0.0083,0.0076,0.0105,0.0048,0.0041,0.0023,0.0031,0.001,0.0007,-0.0042,-0.0042,-0.0042,0.0021,0,0,0,0,0,0,0.0199,0.0195,0.0198,0.0171,0.0164,0.0153,0.0133,0.0127,0.0118,0.0115,0.0079,0.0072,0.0047,0.0027,0.0021,0.0028,0.0005,-0.0042,-0.0042,-0.0042,0.0019,0.0023,0.0027,0,0,0,0,0,0.02,0.0207,0.0198,0.0195,0.0168,0.0153,0.0148,0.0126,0.0118,0.0118,0.0094,0.0073,0.0023,0.0025,0.0018,0.0024,-0.0042,-0.0042,-0.0042,0.0017,0.0022,0.0027,0,0,0,0,0,0,0.0223,0.0203,0.0193,0.0194,0.0177,0.0148,0.0146,0.0131,0.0112,0.0111,0.0076,0.0068,0.0055,0.0029,0.0033,0.0008,-0.0014,-0.0015,0.0033,0.0038,0.0042,0.0058,0.0003,0,0,0,0,0,0.023,0.0229,0.0206,0.0207,0.0201,0.0175,0.0166,0.0153,0.0132,0.0123,0.0097,0.007,0.0049,0.0037,0.0012,0.0001,-0.0024,-0.0002,0.0002,0.0006,0.0013,-0.0019,-0.0017,-0.0041,-0.0041,-0.0041,0,0,0.0238,0.0228,0.0227,0.0211,0.0197,0.0198,0.017,0.0163,0.0164,0.0119,0.0113,0.0084,0.0048,0.0036,0.0028,0.0017,0.0001,0.0006,0.001,0.0014,-0.0018,-0.0016,-0.0014,-0.0041,-0.0041,-0.0041,0,0,0.0258,0.0247,0.0255,0.0246,0.0231,0.0217,0.0218,0.0194,0.0184,0.0172,0.0142,0.012,0.0085,0.0063,0.0047,0.0057,0.0023,0.0047,0.0082,0.0052,0.0054,0.0055,0.0034,0.0033,0.005,0.005,0.005,0,0.027,0.0276,0.0255,0.0261,0.0261,0.0231,0.0243,0.0228,0.0201,0.0198,0.0179,0.0131,0.0098,0.0087,0.0088,0.0068,0.0048,0.007,0.0058,0.0059,0.006,0.0037,0.0035,0.0053,0.0053,0.0052,0.0052,0,0.0296,0.0301,0.0306,0.0307,0.0304,0.0308,0.029,0.0286,0.0269,0.0252,0.0235,0.0188,0.0161,0.0144,0.0118,0.0108,0.0093,0.0069,0.0051,0.0066,0.0041,0.0038,0.0057,0.0056,0.0055,0.0054,0,0,0.0324,0.0325,0.0327,0.0341,0.033,0.0335,0.034,0.0337,0.035,0.031,0.0316,0.0267,0.0239,0.0219,0.0182,0.0152,0.0134,0.0117,0.0114,0.0105,0.0075,0.0078,0.0074,0.0109,0.0109,0.0108,0.0059,0,0.0353,0.0379,0.037,0.0401,0.0416,0.0397,0.0409,0.0403,0.0389,0.0386,0.0334,0.0321,0.027,0.0259,0.0222,0.016,0.0128,0.015,0.0053,0.005,0.0058,0.0072,0.0137,0.01,0.0056,0.0055,0.0055,0,0.0386,0.0399,0.0433,0.0457,0.0463,0.0479,0.0501,0.0506,0.0491,0.0478,0.0451,0.0409,0.0366,0.0314,0.0218,0.0236,0.0162,0.0106,0.0102,0.0082,0.0048,0.0074,0.0095,0.0004,0.0049,0.005,0.005,0,0.0428,0.0449,0.0481,0.0487,0.0505,0.0525,0.0537,0.0537,0.0558,0.054,0.0551,0.0483,0.0463,0.0359,0.0245,0.023,0.0138,0.0099,0.0031,0.003,0.0056,0.0058,-0.0014,0.0024,0.0024,0.0024,0.0025,0,0.0466,0.0494,0.0507,0.0527,0.0578,0.0573,0.0626,0.0627,0.0638,0.0681,0.0606,0.0624,0.0473,0.0402,0.0277,0.0159,0.016,0.0044,0.0019,0.0079,0.0084,-0.002,-0.0099,0.0023,0.0023,0.0023,0.0024,0,0.0507,0.0512,0.0556,0.0585,0.0601,0.0639,0.0691,0.0727,0.0732,0.0784,0.0784,0.0731,0.0649,0.0497,0.0338,0.0219,0.0038,0.0041,0.0128,0.0114,-0.0039,-0.0117,-0.0219,-0.0287,-0.0042,-0.0042,-0.0042,0,0.053,0.0556,0.0604,0.0638,0.0656,0.0709,0.0751,0.0772,0.082,0.0862,0.0897,0.0837,0.0825,0.0599,0.0383,0.0177,0.0048,0.0077,0.005,-0.003,-0.0136,-0.0175,-0.0228,0.0108,0.0109,0.011,0.0111,0,0.0576,0.0592,0.0628,0.0695,0.0749,0.081,0.0876,0.093,0.0971,0.1032,0.1098,0.1094,0.0904,0.0748,0.0461,0.0299,0.0026,0.0088,-0.0018,-0.0041,-0.0066,-0.0147,0.0122,0.0118,0.0118,0.0117,0.0117,0.0116,0.0614,0.0645,0.0693,0.0759,0.0822,0.0906,0.0968,0.1057,0.1159,0.1265,0.1254,0.1312,0.1097,0.0731,0.0471,0.0111,0.0066,0.0016,-0.0075,-0.0109,-0.0162,0.0128,0.0106,0.0105,0.0105,0.0104,0.0104,0,0.0657,0.069,0.0752,0.0832,0.0904,0.0932,0.1046,0.1123,0.1264,0.1401,0.1474,0.1486,0.1178,0.0827,0.0354,0.0043,-0.0098,-0.0133,-0.017,-0.0226,0.0029,0.005,0.0044,0.0044,0.0044,0.0044,0.0044,0.0044,0.0681,0.074,0.0766,0.0885,0.0945,0.1045,0.1113,0.1247,0.1376,0.1579,0.1702,0.1765,0.1637,0.0738,0.0128,-0.0082,-0.0329,-0.0364,-0.0525,-0.0337,-0.033,-0.0323,-0.0319,-0.0403,-0.0403,-0.0697,-0.07,-0.0702]}],[{"header":{"parameterUnit":"m.s-1","parameterCategory":2,"la1":30.2991,"la2":30.254,"lo1":-89.0895,"lo2":-89.0444,"dy":0.0017,"dx":0.0017,"nx":28,"ny":28,"refTime":"2024-05-12T09:00:00:Z","depth":"2","parameterNumber":2,"parameterNumberName":"U-component_of_CURRENTS"},"data":[0,0,0,0,0,0,0,0,0,0,0,0,0,0,0,0,0,0,0,0,0,0,0,0,0,0,0,0,0,0,0,0,0,0,0,0,0,0,0,0,0,0,0,0,0,0,0,0,0,0,0,0,0,0,0,0,0,0,0.2536,0.2536,0,0.2536,0.2536,0.2536,0.252,0.252,0.252,0.252,0.2499,0.2499,0.2498,0,0,0,0,0,0,0,0,0,0,0,0,0,0.253,0.253,0.2536,0.2536,0.2536,0.2536,0.2536,0.2535,0.252,0.252,0.252,0.252,0.2499,0.2499,0.2498,0,0,0,0,0,0,0,0,0,0,0,0,0,0.2529,0.253,0.2536,0.253,0.253,0.2536,0.2536,0.2535,0.252,0.252,0.252,0.252,0.2499,0.2499,0.2498,0.25,0,0,0.2496,0.2496,0,0,0,0,0,0,0,0,0.253,0.2529,0.2531,0.2531,0.253,0.253,0.2526,0.2523,0.2521,0.2522,0.252,0.2519,0.2509,0.2508,0.2505,0.25,0.2499,0.2496,0.2496,0.2496,0.2496,0,0,0,0,0,0,0,0.253,0.2529,0.2533,0.2531,0.2531,0.2531,0.253,0.2526,0.2515,0.2522,0.2521,0.2525,0.2508,0.2506,0.2505,0.2498,0.2496,0.2496,0.2496,0.2495,0.2526,0.2527,0,0,0,0,0,0,0.2534,0.2529,0.2534,0.2534,0.2532,0.2531,0.253,0.2528,0.2515,0.2514,0.2525,0.2524,0.2507,0.2506,0.2504,0.2526,0.2496,0.2495,0.2495,0.2525,0.2526,0.2527,0,0,0,0,0,0,0.2534,0.2534,0.2534,0.2534,0.2534,0.2532,0.253,0.2529,0.2531,0.2519,0.2516,0.253,0.2507,0.2505,0.251,0.2524,0.2495,0.2495,0.2523,0.2525,0.2527,0.2557,0,0,0,0,0,0,0.2534,0.2534,0.2536,0.2534,0.2534,0.2543,0.253,0.2529,0.2535,0.2534,0.2522,0.2519,0.2506,0.2511,0.2509,0.2523,0.2494,0.2522,0.2524,0.2526,0.2555,0.256,0.2564,0,0,0,0,0,0.2533,0.2535,0.2535,0.2536,0.2536,0.2544,0.2544,0.254,0.2536,0.254,0.2535,0.252,0.2524,0.2511,0.2509,0.2523,0.2521,0.2524,0.2526,0.2553,0.2559,0.2564,0,0,0,0,0,0,0.2531,0.2534,0.2534,0.2536,0.2544,0.2542,0.2546,0.2546,0.2545,0.2544,0.253,0.2527,0.254,0.253,0.2517,0.2541,0.2522,0.2524,0.2543,0.2548,0.2553,0.2557,0.2494,0,0,0,0,0,0.2534,0.2535,0.2541,0.2543,0.2549,0.255,0.2554,0.2553,0.2553,0.2553,0.2545,0.2543,0.2549,0.2547,0.2549,0.2556,0.2568,0.2567,0.2572,0.2575,0.2579,0.2623,0.2632,0.2536,0.2536,0.2536,0,0,0.2533,0.2536,0.2535,0.2544,0.2548,0.2556,0.2551,0.256,0.2566,0.2551,0.2555,0.2559,0.2557,0.2569,0.2574,0.256,0.261,0.2579,0.2582,0.2584,0.2627,0.2636,0.2645,0.2538,0.2537,0.2537,0,0,0.2533,0.2537,0.2539,0.2548,0.2561,0.2564,0.2571,0.2576,0.2578,0.2588,0.2584,0.2599,0.2596,0.2602,0.2605,0.2637,0.2637,0.2639,0.2658,0.2701,0.271,0.2717,0.2745,0.2755,0.2636,0.2636,0.2636,0,0.2533,0.2537,0.2543,0.2551,0.2562,0.257,0.2581,0.2585,0.2591,0.2606,0.2593,0.2623,0.2614,0.2644,0.2651,0.2647,0.2668,0.2634,0.2707,0.2715,0.2722,0.2749,0.2759,0.2638,0.2638,0.2637,0.2637,0,0.2535,0.2542,0.2547,0.2559,0.2572,0.2584,0.2597,0.2613,0.2621,0.2631,0.2665,0.2662,0.2684,0.2684,0.2671,0.272,0.2718,0.2712,0.2691,0.2734,0.2759,0.2769,0.264,0.264,0.2639,0.2639,0,0,0.2522,0.2545,0.2545,0.2554,0.258,0.2587,0.2616,0.2647,0.2668,0.2682,0.2717,0.2729,0.2741,0.2745,0.2741,0.2765,0.2823,0.2756,0.2757,0.2781,0.2916,0.2903,0.2913,0.2835,0.2837,0.2838,0.2913,0,0.2523,0.2535,0.2552,0.2568,0.2578,0.2609,0.2631,0.2662,0.2689,0.2722,0.2748,0.2772,0.276,0.2771,0.2801,0.2821,0.2852,0.2803,0.2874,0.2876,0.2858,0.2925,0.265,0.2693,0.2923,0.2925,0.2926,0,0.2516,0.2527,0.2543,0.2575,0.2583,0.2597,0.2649,0.2671,0.2732,0.2757,0.2807,0.2824,0.2871,0.2845,0.2922,0.2894,0.2911,0.292,0.2923,0.2908,0.2883,0.2689,0.2703,0.2943,0.2942,0.294,0.2939,0,0.249,0.2519,0.2531,0.2541,0.2579,0.2602,0.2628,0.2686,0.2715,0.2784,0.2821,0.2881,0.2916,0.2957,0.2989,0.2962,0.3068,0.3034,0.3041,0.304,0.2817,0.2793,0.3093,0.3093,0.3093,0.3093,0.3093,0,0.2478,0.2484,0.2519,0.2522,0.2544,0.2583,0.2617,0.266,0.2727,0.277,0.2835,0.2884,0.2948,0.3013,0.3026,0.3081,0.3111,0.3063,0.3069,0.2821,0.2798,0.3018,0.3008,0.3096,0.3095,0.3095,0.3094,0,0.244,0.2463,0.2474,0.2515,0.2528,0.2542,0.2599,0.2624,0.2704,0.2768,0.2794,0.2908,0.3,0.3061,0.3134,0.3134,0.3174,0.3181,0.2886,0.2856,0.3101,0.3092,0.3194,0.3194,0.3194,0.3195,0.3195,0,0.2419,0.2423,0.2453,0.2458,0.2475,0.2505,0.2523,0.2599,0.2636,0.2776,0.2806,0.2931,0.2998,0.3123,0.3122,0.3163,0.3214,0.2949,0.285,0.3122,0.3117,0.3107,0.3098,0.2557,0.2552,0.2548,0.2544,0,0.2383,0.2395,0.2405,0.2412,0.2426,0.2439,0.2481,0.2505,0.2605,0.267,0.277,0.2838,0.2964,0.2892,0.2972,0.2952,0.292,0.2872,0.3233,0.2593,0.2533,0.2525,0.2534,0.2508,0.2512,0.2514,0.2516,0.2518,0.2355,0.2349,0.2361,0.2358,0.2367,0.2361,0.2344,0.2393,0.2434,0.2486,0.2634,0.2648,0.2698,0.268,0.262,0.2579,0.2786,0.2651,0.2657,0.267,0.2602,0.2548,0.2512,0.2515,0.2518,0.2521,0.2523,0,0.2302,0.2305,0.2304,0.2286,0.2246,0.2288,0.2298,0.225,0.224,0.2317,0.2362,0.2218,0.2183,0.2239,0.212,0.2156,0.2068,0.2071,0.1911,0.1952,0.1987,0.1877,0.1598,0.1595,0.1592,0.1589,0,0,0.2279,0.2246,0.2233,0.2155,0.2145,0.2059,0.2039,0.1994,0.2,0.1955,0.1939,0.2068,0.2179,0.1851,0.1822,0.1687,0.1793,0.1617,0.2363,0.2216,0.2246,0.2337,0.2219,0,0,0,0,0]},{"header":{"parameterUnit":"m.s-1","parameterCategory":2,"la1":30.2991,"la2":30.254,"lo1":-89.0895,"lo2":-89.0444,"dy":0.0017,"dx":0.0017,"nx":28,"ny":28,"refTime":"2024-05-12T09:00:00:Z","depth":"2","parameterNumber":3,"parameterNumberName":"V-component_of_CURRENTS"},"data":[0,0,0,0,0,0,0,0,0,0,0,0,0,0,0,0,0,0,0,0,0,0,0,0,0,0,0,0,0,0,0,0,0,0,0,0,0,0,0,0,0,0,0,0,0,0,0,0,0,0,0,0,0,0,0,0,0,0,0.0138,0.0138,0,0.0087,0.0087,0.0086,0.0054,0.0054,0.0054,0.0054,-0.0012,-0.0014,-0.0015,0,0,0,0,0,0,0,0,0,0,0,0,0,0.0173,0.0172,0.0138,0.0138,0.0137,0.0088,0.0087,0.0086,0.0054,0.0054,0.0054,0.0054,-0.0011,-0.0013,-0.0015,0,0,0,0,0,0,0,0,0,0,0,0,0,0.0143,0.0172,0.0138,0.0116,0.0114,0.0088,0.0087,0.0086,0.0054,0.0054,0.0054,0.0054,-0.0011,-0.0013,-0.0016,-0.0028,0,0,-0.0023,-0.0024,0,0,0,0,0,0,0,0,0.0145,0.0141,0.012,0.0118,0.0115,0.0078,0.0075,0.0047,0.0054,0.0076,0.0054,0.0054,0.0017,0.0012,0.0002,-0.0031,-0.0034,-0.0024,-0.0025,-0.0026,-0.0027,0,0,0,0,0,0,0,0.0147,0.0143,0.0117,0.0119,0.0116,0.0097,0.0092,0.0069,0.0047,0.0074,0.0072,0.0068,0.0016,0.0005,0.0,-0.0035,-0.0024,-0.0026,-0.0027,-0.0028,-0.0082,-0.0082,0,0,0,0,0,0,0.0157,0.0145,0.0119,0.0116,0.0131,0.0096,0.0091,0.0089,0.0048,0.0042,0.0068,0.0066,0.0009,0.0003,-0.0002,-0.0004,-0.0026,-0.0029,-0.003,-0.0082,-0.0082,-0.0082,0,0,0,0,0,0,0.0158,0.0155,0.0121,0.013,0.0124,0.0096,0.0094,0.0088,0.0081,0.0043,0.0037,0.0066,0.0009,0.0001,-0.0016,-0.0008,-0.003,-0.0032,-0.0082,-0.0082,-0.0082,-0.0018,0,0,0,0,0,0,0.0159,0.0156,0.0158,0.0131,0.0124,0.0112,0.0094,0.0087,0.0078,0.0076,0.0039,0.0033,0.0008,-0.0012,-0.0019,-0.0011,-0.0034,-0.0082,-0.0082,-0.0082,-0.002,-0.0016,-0.0012,0,0,0,0,0,0.016,0.0167,0.0158,0.0155,0.0128,0.0113,0.0108,0.0086,0.0079,0.0078,0.0055,0.0034,-0.0016,-0.0014,-0.0022,-0.0015,-0.0082,-0.0082,-0.0082,-0.0022,-0.0017,-0.0012,0,0,0,0,0,0,0.0183,0.0163,0.0154,0.0154,0.0137,0.0108,0.0106,0.0092,0.0073,0.0072,0.0037,0.0029,0.0016,-0.001,-0.0007,-0.0031,-0.0053,-0.0054,-0.0005,-0.0001,0.0003,0.0019,-0.0036,0,0,0,0,0,0.019,0.0189,0.0166,0.0166,0.0161,0.0135,0.0127,0.0113,0.0092,0.0084,0.0058,0.0031,0.0009,-0.0002,-0.0027,-0.0039,-0.0063,-0.0041,-0.0037,-0.0033,-0.0026,-0.0057,-0.0055,-0.0081,-0.0081,-0.0081,0,0,0.0198,0.0188,0.0186,0.0171,0.0157,0.0158,0.013,0.0123,0.0124,0.008,0.0074,0.0045,0.0009,-0.0003,-0.0012,-0.0022,-0.0038,-0.0033,-0.0029,-0.0025,-0.0057,-0.0054,-0.0052,-0.0081,-0.0081,-0.0081,0,0,0.0218,0.0207,0.0214,0.0205,0.0191,0.0177,0.0178,0.0154,0.0144,0.0133,0.0103,0.0081,0.0046,0.0024,0.0008,0.0019,-0.0015,0.0009,0.0044,0.0014,0.0017,0.0018,-0.0003,-0.0004,0.0011,0.0012,0.0012,0,0.023,0.0235,0.0214,0.0221,0.022,0.0191,0.0202,0.0188,0.0161,0.0159,0.0139,0.0092,0.0059,0.0049,0.005,0.003,0.001,0.0031,0.0021,0.0022,0.0023,0.0,-0.0002,0.0015,0.0014,0.0014,0.0014,0,0.0255,0.026,0.0265,0.0266,0.0263,0.0267,0.025,0.0245,0.0229,0.0212,0.0196,0.0149,0.0123,0.0106,0.0081,0.0072,0.0055,0.0032,0.0013,0.0029,0.0004,0.0001,0.0019,0.0018,0.0017,0.0016,0,0,0.0283,0.0284,0.0286,0.0299,0.0289,0.0294,0.0299,0.0296,0.031,0.027,0.0277,0.0228,0.0202,0.0182,0.0144,0.0115,0.0098,0.008,0.0077,0.0068,0.004,0.0042,0.0038,0.0074,0.0074,0.0073,0.0023,0,0.0311,0.0337,0.0328,0.0359,0.0373,0.0356,0.0367,0.0361,0.0348,0.0345,0.0295,0.0283,0.0232,0.0222,0.0185,0.0124,0.0093,0.0115,0.0018,0.0015,0.0022,0.0036,0.004,-0.0003,0.002,0.002,0.0019,0,0.0344,0.0357,0.0391,0.0414,0.042,0.0437,0.0459,0.0464,0.0449,0.0437,0.0411,0.037,0.0328,0.0277,0.0182,0.02,0.0127,0.0071,0.0067,0.0046,0.0012,-0.0019,-0.001,0.0014,0.0014,0.0015,0.0015,0,0.0385,0.0406,0.0439,0.0445,0.0462,0.0482,0.0494,0.0495,0.0515,0.0498,0.051,0.0443,0.0423,0.0322,0.0209,0.0194,0.0103,0.0065,-0.0004,-0.0004,-0.0032,-0.0034,-0.0009,-0.0009,-0.0009,-0.0008,-0.0008,0,0.0424,0.0451,0.0464,0.0484,0.0535,0.053,0.0583,0.0584,0.0596,0.0637,0.0565,0.0581,0.0433,0.0363,0.024,0.0123,0.0125,0.001,-0.0015,-0.0009,-0.0009,-0.0021,-0.0022,-0.001,-0.001,-0.001,-0.0009,0,0.0464,0.0469,0.0513,0.0541,0.0558,0.0596,0.0648,0.0683,0.0688,0.074,0.0739,0.0687,0.0605,0.0456,0.0299,0.0182,0.0053,0.0006,0.003,0.0009,-0.0045,-0.0042,-0.0077,-0.0077,-0.0077,-0.0078,-0.0078,0,0.0487,0.0513,0.0561,0.0595,0.0613,0.0666,0.0707,0.0728,0.0775,0.0815,0.0849,0.079,0.0773,0.0549,0.0324,0.0117,0.0078,-0.0025,-0.0059,-0.003,-0.0051,-0.0048,-0.0045,-0.0074,-0.0074,-0.0074,-0.0074,0,0.0533,0.0549,0.0584,0.0651,0.0705,0.0765,0.083,0.0882,0.0923,0.0977,0.1039,0.1031,0.0832,0.0624,0.0335,0.0186,0.0008,-0.0033,-0.0013,-0.0049,-0.0029,-0.0049,-0.0046,-0.0075,-0.0075,-0.0075,-0.0075,-0.0075,0.0571,0.0601,0.0649,0.0714,0.0777,0.0859,0.092,0.0985,0.1078,0.1132,0.115,0.1114,0.0903,0.0519,0.0286,0.0015,0.0031,-0.0088,-0.0087,-0.0086,-0.0069,-0.005,-0.0096,-0.0096,-0.0096,-0.0096,-0.0096,0,0.0605,0.0646,0.0707,0.0786,0.0845,0.0885,0.0997,0.1028,0.1131,0.1174,0.1207,0.0991,0.0786,0.053,0.0141,-0.0067,-0.0098,-0.015,-0.0146,-0.0143,-0.014,-0.0126,-0.0169,-0.017,-0.017,-0.0171,0,0,0.0627,0.068,0.0705,0.0814,0.0883,0.0951,0.1017,0.1071,0.1103,0.1123,0.11,0.107,0.0826,0.0524,0.025,0.0032,-0.0017,-0.0018,0.0063,0.0103,0.0107,-0.0079,-0.005,0,0,0,0,0]}],[{"header":{"parameterUnit":"m.s-1","parameterCategory":2,"la1":30.2991,"la2":30.254,"lo1":-89.0895,"lo2":-89.0444,"dy":0.0017,"dx":0.0017,"nx":28,"ny":28,"refTime":"2024-05-12T09:00:00:Z","depth":"4","parameterNumber":2,"parameterNumberName":"U-component_of_CURRENTS"},"data":[0,0,0,0,0,0,0,0,0,0,0,0,0,0,0,0,0,0,0,0,0,0,0,0,0,0,0,0,0,0,0,0,0,0,0,0,0,0,0,0,0,0,0,0,0,0,0,0,0,0,0,0,0,0,0,0,0,0,0.1686,0.1687,0,0.1735,0.1735,0.1736,0.1781,0.1781,0.1782,0.1783,0.1842,0.1843,0.1844,0,0,0,0,0,0,0,0,0,0,0,0,0,0.1623,0.1624,0.1686,0.1687,0.1688,0.1735,0.1735,0.1736,0.178,0.1781,0.1782,0.1783,0.1842,0.1843,0.1844,0,0,0,0,0,0,0,0,0,0,0,0,0,0.1657,0.1624,0.1686,0.1717,0.172,0.1735,0.1735,0.1736,0.178,0.1781,0.1782,0.1783,0.1841,0.1842,0.1844,0.1831,0,0,0.1848,0.1849,0,0,0,0,0,0,0,0,0.1655,0.1659,0.1712,0.1715,0.1719,0.1754,0.1735,0.1769,0.178,0.1756,0.1783,0.1784,0.1814,0.1818,0.1822,0.1833,0.1836,0.1848,0.1849,0.1849,0.185,0,0,0,0,0,0,0,0.1653,0.1657,0.1704,0.1713,0.1717,0.1726,0.1731,0.1741,0.1777,0.1758,0.1762,0.177,0.1816,0.182,0.1823,0.1837,0.1848,0.1849,0.185,0.1851,0.1951,0.1953,0,0,0,0,0,0,0.165,0.1655,0.1702,0.1705,0.1691,0.1726,0.1732,0.174,0.1777,0.1784,0.1769,0.1772,0.1817,0.1822,0.1826,0.1905,0.1849,0.1851,0.1852,0.1949,0.1951,0.1953,0,0,0,0,0,0,0.1648,0.1653,0.17,0.1683,0.169,0.1726,0.1734,0.1741,0.1781,0.1785,0.1792,0.1807,0.1818,0.1824,0.187,0.1905,0.1851,0.1853,0.1947,0.195,0.1952,0.2005,0,0,0,0,0,0,0.1646,0.1652,0.1675,0.1682,0.1691,0.1731,0.1734,0.1741,0.1783,0.1788,0.182,0.1824,0.182,0.1868,0.1871,0.1906,0.1854,0.1944,0.1948,0.1951,0.2001,0.2009,0.2017,0,0,0,0,0,0.1644,0.1662,0.1675,0.1682,0.1714,0.1732,0.1738,0.1765,0.1784,0.1806,0.1833,0.1825,0.1892,0.187,0.1874,0.1909,0.1943,0.1947,0.1951,0.1998,0.2008,0.2016,0,0,0,0,0,0,0.1648,0.1669,0.1684,0.1709,0.1732,0.1741,0.1769,0.1785,0.1823,0.1841,0.1844,0.1851,0.1905,0.1902,0.1878,0.195,0.1918,0.1923,0.1952,0.1962,0.197,0.1964,0.1855,0,0,0,0,0,0.1658,0.1681,0.1698,0.1724,0.1738,0.1761,0.1781,0.1799,0.1824,0.1844,0.1865,0.1893,0.1918,0.1937,0.1955,0.1992,0.1993,0.2019,0.2027,0.2034,0.2033,0.2074,0.2085,0.1967,0.1967,0.1967,0,0,0.1667,0.1684,0.1699,0.1728,0.175,0.1771,0.1777,0.1815,0.1841,0.1843,0.1899,0.1922,0.1935,0.1979,0.2003,0.1985,0.2069,0.2039,0.2044,0.204,0.2079,0.209,0.2101,0.197,0.1969,0.1969,0,0,0.1683,0.1714,0.1735,0.1756,0.1795,0.1805,0.1825,0.1856,0.1885,0.1932,0.1945,0.1991,0.2027,0.2044,0.2054,0.2116,0.211,0.2131,0.2165,0.2205,0.2214,0.2223,0.224,0.225,0.2134,0.2134,0.2134,0,0.1698,0.1722,0.1746,0.1768,0.1792,0.1824,0.1849,0.1876,0.1922,0.1953,0.1962,0.2041,0.2055,0.2104,0.2128,0.2133,0.2149,0.2126,0.2214,0.2222,0.223,0.2246,0.2256,0.2137,0.2137,0.2137,0.2136,0,0.1714,0.1749,0.1765,0.1803,0.1831,0.1863,0.1895,0.1941,0.1983,0.2009,0.2084,0.2108,0.2156,0.2171,0.2168,0.2235,0.2227,0.2219,0.2186,0.2245,0.2258,0.2267,0.2142,0.214,0.214,0.2139,0,0,0.1702,0.1765,0.1774,0.18,0.1856,0.1874,0.1933,0.1986,0.203,0.2088,0.2145,0.22,0.2228,0.2243,0.2255,0.2286,0.2354,0.2281,0.2282,0.2291,0.2438,0.2282,0.2277,0.2369,0.2371,0.2373,0.2424,0,0.1711,0.1754,0.1788,0.1838,0.1861,0.1917,0.1962,0.202,0.2075,0.2138,0.2188,0.2245,0.225,0.2284,0.2322,0.2349,0.2382,0.234,0.2386,0.2386,0.2235,0.2284,0.2379,0.2431,0.2433,0.2435,0.2436,0,0.1706,0.1739,0.1789,0.1856,0.1874,0.1915,0.2001,0.2047,0.2139,0.2186,0.2262,0.2297,0.2369,0.2356,0.2441,0.242,0.2438,0.2447,0.245,0.2289,0.2248,0.2361,0.2452,0.2451,0.245,0.2449,0.2448,0,0.1663,0.1735,0.1778,0.1801,0.1881,0.1932,0.1985,0.2074,0.2121,0.2227,0.2275,0.2359,0.2415,0.2459,0.2498,0.2482,0.2571,0.2549,0.2423,0.2412,0.2513,0.2503,0.2603,0.2603,0.2603,0.2603,0.2602,0,0.1636,0.1673,0.1771,0.1791,0.185,0.1921,0.1994,0.2061,0.2157,0.2208,0.2304,0.2347,0.2448,0.2507,0.2524,0.2501,0.2602,0.243,0.2417,0.2534,0.2526,0.2519,0.2508,0.2604,0.2604,0.2604,0.2603,0,0.1574,0.1639,0.1691,0.1794,0.1831,0.1877,0.1991,0.2034,0.2144,0.2215,0.2254,0.237,0.2437,0.251,0.2581,0.2519,0.2518,0.2486,0.261,0.2603,0.2323,0.2316,0.2334,0.2329,0.2324,0.2321,0.2318,0,0.154,0.1565,0.168,0.1715,0.177,0.1852,0.19,0.2016,0.2057,0.2202,0.2219,0.2333,0.2394,0.2364,0.2457,0.2474,0.2449,0.2428,0.2362,0.2311,0.2298,0.2296,0.2294,0.2311,0.231,0.2309,0.2308,0,0.1477,0.1537,0.1582,0.1653,0.1717,0.1765,0.1848,0.1862,0.1987,0.2105,0.2119,0.2146,0.2216,0.2258,0.2295,0.2304,0.2425,0.2382,0.239,0.2328,0.2284,0.2274,0.2277,0.2293,0.2295,0.2297,0.2297,0,0.1438,0.1453,0.1526,0.1571,0.1644,0.1657,0.1711,0.1748,0.1798,0.1948,0.1951,0.207,0.2186,0.2172,0.2206,0.2203,0.2163,0.208,0.2103,0.212,0.2028,0.1938,0.183,0,0,0,0,0,0.1387,0.1392,0.1434,0.147,0.1534,0.1574,0.1662,0.1716,0.1834,0.1789,0.1859,0.1906,0.1938,0.2004,0.1958,0.2133,0.2189,0.207,0.211,0.2211,0.2228,0.214,0,0,0,0,0,0,0.1352,0.1392,0.1397,0.1375,0.1383,0.1433,0.1485,0.1565,0.1541,0.1669,0.1695,0.179,0.1856,0.1945,0.1922,0.1944,0.1927,0.215,0.2144,0.2202,0.2217,0.2231,0.2146,0,0,0,0,0]},{"header":{"parameterUnit":"m.s-1","parameterCategory":2,"la1":30.2991,"la2":30.254,"lo1":-89.0895,"lo2":-89.0444,"dy":0.0017,"dx":0.0017,"nx":28,"ny":28,"refTime":"2024-05-12T09:00:00:Z","depth":"4","parameterNumber":3,"parameterNumberName":"V-component_of_CURRENTS"},"data":[0,0,0,0,0,0,0,0,0,0,0,0,0,0,0,0,0,0,0,0,0,0,0,0,0,0,0,0,0,0,0,0,0,0,0,0,0,0,0,0,0,0,0,0,0,0,0,0,0,0,0,0,0,0,0,0,0,0,0.0031,0.003,0,-0.0004,-0.0004,-0.0005,-0.0024,-0.0024,-0.0024,-0.0024,-0.0079,-0.008,-0.0081,0,0,0,0,0,0,0,0,0,0,0,0,0,0.0054,0.0054,0.0031,0.003,0.003,-0.0004,-0.0004,-0.0005,-0.0024,-0.0024,-0.0024,-0.0024,-0.0078,-0.008,-0.0081,0,0,0,0,0,0,0,0,0,0,0,0,0,0.0034,0.0054,0.0031,0.0016,0.0015,-0.0004,-0.0004,-0.0005,-0.0024,-0.0024,-0.0024,-0.0024,-0.0078,-0.008,-0.0082,-0.0094,0,0,-0.0088,-0.0089,0,0,0,0,0,0,0,0,0.0035,0.0033,0.0019,0.0017,0.0016,-0.0009,-0.0016,-0.0035,-0.0024,-0.001,-0.0024,-0.0024,-0.0057,-0.0061,-0.0067,-0.0096,-0.0098,-0.0088,-0.009,-0.009,-0.0091,0,0,0,0,0,0,0,0.0037,0.0034,0.0017,0.0019,0.0016,0.0003,0.0,-0.002,-0.0033,-0.0011,-0.0012,-0.0016,-0.0058,-0.0065,-0.0069,-0.0099,-0.0088,-0.009,-0.0091,-0.0092,-0.0132,-0.0132,0,0,0,0,0,0,0.0043,0.0036,0.0018,0.0016,0.0026,0.0003,-0.0,-0.0002,-0.0033,-0.0037,-0.0016,-0.0016,-0.0062,-0.0066,-0.0071,-0.0067,-0.009,-0.0092,-0.0094,-0.0133,-0.0132,-0.0132,0,0,0,0,0,0,0.0044,0.0042,0.0019,0.0025,0.0021,0.0003,0.0001,-0.0002,-0.0006,-0.0036,-0.0041,-0.0016,-0.0062,-0.0068,-0.0081,-0.007,-0.0093,-0.0095,-0.0133,-0.0132,-0.0132,-0.0073,0,0,0,0,0,0,0.0044,0.0042,0.0044,0.0026,0.0021,0.0015,0.0001,-0.0003,-0.0008,-0.001,-0.0038,-0.0043,-0.0062,-0.0078,-0.0083,-0.0074,-0.0097,-0.0133,-0.0133,-0.0132,-0.0075,-0.0071,-0.0067,0,0,0,0,0,0.0045,0.0049,0.0045,0.0042,0.0025,0.0015,0.0012,-0.0003,-0.0008,-0.0007,-0.0024,-0.0042,-0.0079,-0.0079,-0.0086,-0.0077,-0.0133,-0.0133,-0.0132,-0.0077,-0.0072,-0.0067,0,0,0,0,0,0,0.0059,0.0047,0.0042,0.0041,0.0032,0.0012,0.0011,0.0001,-0.0011,-0.0012,-0.0039,-0.0045,-0.0054,-0.0075,-0.0074,-0.0088,-0.011,-0.011,-0.0065,-0.0061,-0.0057,-0.0043,-0.0099,0,0,0,0,0,0.0064,0.0065,0.005,0.005,0.0047,0.003,0.0025,0.0017,0.0002,-0.0003,-0.0023,-0.0043,-0.0058,-0.0066,-0.0086,-0.0093,-0.0114,-0.0092,-0.0088,-0.0084,-0.0079,-0.0101,-0.0098,-0.0131,-0.0131,-0.0131,0,0,0.0069,0.0063,0.0063,0.0054,0.0045,0.0049,0.0027,0.0023,0.0029,-0.0008,-0.0008,-0.0031,-0.0058,-0.0063,-0.0069,-0.0078,-0.0087,-0.0084,-0.008,-0.0077,-0.01,-0.0097,-0.0094,-0.013,-0.013,-0.013,0,0,0.0082,0.0075,0.0081,0.0077,0.0069,0.0062,0.0064,0.0048,0.0044,0.0038,0.0017,0.0003,-0.0024,-0.0036,-0.0047,-0.0033,-0.0065,-0.0042,-0.0008,-0.0029,-0.0027,-0.0024,-0.0046,-0.0046,-0.0038,-0.0038,-0.0038,0,0.0088,0.0095,0.0082,0.0088,0.0091,0.0073,0.0085,0.0078,0.0061,0.0062,0.0046,0.0015,-0.0009,-0.0009,-0.0004,-0.0022,-0.0041,-0.0022,-0.0023,-0.0021,-0.002,-0.0042,-0.0043,-0.0035,-0.0036,-0.0036,-0.0036,0,0.0106,0.0113,0.0117,0.0123,0.0126,0.0131,0.0125,0.0126,0.0117,0.0109,0.0103,0.007,0.0054,0.0042,0.0023,0.0023,0.0004,-0.0015,-0.0031,-0.0013,-0.0038,-0.004,-0.0031,-0.0032,-0.0033,-0.0034,0,0,0.0117,0.0128,0.0131,0.0145,0.0146,0.0153,0.0166,0.0174,0.019,0.0164,0.0177,0.0146,0.0127,0.0113,0.0086,0.0067,0.0056,0.0034,0.0031,0.002,0.0009,-0.0001,-0.0005,0.0037,0.0037,0.0037,-0.0011,0,0.0137,0.0161,0.0162,0.0194,0.0209,0.0205,0.0223,0.0227,0.0225,0.023,0.0198,0.0195,0.0155,0.015,0.0125,0.0076,0.0053,0.0071,-0.0014,-0.0017,-0.0022,-0.0007,0.0037,-0.0013,-0.0014,-0.0014,-0.0014,0,0.0156,0.0172,0.0204,0.0239,0.0246,0.0266,0.0298,0.0311,0.0313,0.0308,0.0296,0.0267,0.0243,0.0201,0.013,0.0143,0.0082,0.0036,0.0033,0.0003,-0.003,-0.0038,-0.0019,-0.0018,-0.0018,-0.0018,-0.0017,0,0.0177,0.0207,0.0238,0.0246,0.0277,0.03,0.0322,0.0337,0.036,0.0361,0.0372,0.0331,0.0318,0.024,0.0147,0.0137,0.0061,0.0034,-0.0034,-0.0035,-0.0039,-0.0041,-0.0023,-0.0023,-0.0023,-0.0022,-0.0022,0,0.0197,0.0224,0.0253,0.0271,0.0321,0.0333,0.0386,0.0399,0.0423,0.0459,0.0418,0.0428,0.0327,0.0269,0.0171,0.007,0.0078,-0.0022,-0.0046,-0.0013,-0.0012,-0.004,-0.0042,-0.0024,-0.0024,-0.0024,-0.0023,0,0.021,0.0227,0.0268,0.0312,0.0332,0.0369,0.0433,0.0469,0.0489,0.0532,0.0536,0.0505,0.0434,0.0324,0.02,0.0112,0.0007,-0.0037,0.0015,-0.0006,-0.0084,-0.0082,-0.0113,-0.0114,-0.0114,-0.0115,-0.0115,0,0.0218,0.0239,0.0299,0.0331,0.0354,0.0412,0.0454,0.0496,0.0535,0.0579,0.0599,0.0556,0.0515,0.0345,0.0218,0.0037,0.0001,-0.006,-0.0082,-0.0072,-0.0092,-0.0089,-0.0086,-0.0116,-0.0116,-0.0117,-0.0117,0,0.0233,0.0254,0.0288,0.0352,0.0406,0.0466,0.0531,0.0565,0.0616,0.0639,0.0653,0.0573,0.0496,0.0354,0.0217,0.0081,-0.0022,-0.0067,-0.0067,-0.0088,-0.0076,-0.0095,-0.0091,-0.0119,-0.0118,-0.0118,-0.0118,0,0.0245,0.0268,0.0314,0.037,0.0437,0.0499,0.0537,0.0589,0.063,0.0677,0.068,0.0603,0.0563,0.0377,0.025,0.0121,0.0075,0.0012,0.0006,0.0007,0.0049,0.0082,0.0076,0,0,0,0,0,0.0253,0.0276,0.0328,0.039,0.0456,0.0493,0.0577,0.061,0.0664,0.0677,0.0682,0.061,0.0446,0.0381,0.0249,0.0215,0.0037,0.0053,-0.0042,-0.013,-0.0127,-0.01,0,0,0,0,0,0,0.0257,0.03,0.0321,0.0393,0.0434,0.0509,0.0562,0.0602,0.0611,0.0649,0.0568,0.0551,0.0392,0.0515,0.0237,0.0201,0.0116,-0.0014,-0.0018,-0.0131,-0.0129,-0.0127,-0.0098,0,0,0,0,0]}]]